(510785) = 2013 AZ93

Discovered at Kitt Peak on 2013-01-09 by Spacewatch.

Orbit

Orbit type: Main Belt

Note: WebGL enabled browser required.

epoch2024-03-31.0
epoch JD2460400.5
perihelion date2024-03-17.74964
perihelion JD2460387.24964
argument of perihelion (°)31.01794
ascending node (°)128.81024
inclination (°)16.97567
eccentricity0.2523762
perihelion distance (AU)2.2970355
Tisserand w.r.t. Jupiter3.1
ΔV w.r.t. Earth (km/sec)10.8
semimajor axis (AU)3.0724483
mean anomaly (°)2.42496
mean daily motion (°/day)0.18301090
aphelion distance (AU)3.848
period (years)5.39
P-vector [x]-0.92116716
P-vector [y]0.26944589
P-vector [z]0.28080237
Q-vector [x]-0.31573971
Q-vector [y]-0.93926463
Q-vector [z]-0.13450049
absolute magnitude16.67
phase slope0.15
uncertainty0
referenceMPEC 2024-E179
observations used220
oppositions10
arc length (days)5826
first opposition used2008
last opposition used2024
residual rms (arc-secs)0.72
perturbers coarse indicatorM-v
perturbers precise indicator003Ek
first observation date used2008-03-31.0
last observation date used2024-03-13.0
computer nameMPCLINUX
JD of orbit computation2458113.340973
perihelion JD uncertainty (days)1.4545E-04
argument of perihelion uncertainty (°)2.6643E-05
ascending node uncertainty (°)1.5941E-05
inclination uncertainty (°)6.1991E-06
eccentricity uncertainty 6.4009E-08
perihelion distance uncertainty (AU)2.3781E-07
Minimum Orbit Intersection Distances (in AU)
for orbit epoch: 2460400.5, reference: E2024-G02
Mercury1.92727
Venus1.58207
Earth1.32394
Mars0.65527
Jupiter1.25011
Saturn5.859
Uranus16.1686
Neptune26.1657

Observations

196 total observations over interval: 2008 03 31.43274 – 2024 03 13.254993
These data are available for download (format description).

Date (UT) J2000 RA J2000 Dec Magn Location Ref
2008 03 31.43274 13 50 12.19 +16 41 52.9 19.8 V 703 – Catalina Sky Survey MPS 526565
2008 03 31.43988 13 50 11.83 +16 41 55.0 20.1 V 703 – Catalina Sky Survey MPS 526565
2008 03 31.44706 13 50 11.65 +16 42 00.1 20.8 V 703 – Catalina Sky Survey MPS 526565
2008 03 31.45422 13 50 11.29 +16 42 04.7 19.9 V 703 – Catalina Sky Survey MPS 526565
2013 01 09.29445 09 07 25.31 +14 16 31.0 20.2 V 691 – Steward Observatory, Kitt Peak-Spacewatch MPS 451112
2013 01 09.31215 09 07 24.80 +14 16 41.7 20.1 V 691 – Steward Observatory, Kitt Peak-Spacewatch MPS 451112
2013 01 09.32985 09 07 24.28 +14 16 52.8 20.0 V 691 – Steward Observatory, Kitt Peak-Spacewatch MPS 451112
2013 01 10.55737 09 06 48.817 +14 29 15.65 20.2 w F51 – Pan-STARRS 1, Haleakala MPS 451112
2013 01 10.57122 09 06 48.375 +14 29 24.04 20.2 w F51 – Pan-STARRS 1, Haleakala MPS 451112
2013 01 16.37727 09 03 34.84 +15 31 30.0 19.9 V 703 – Catalina Sky Survey MPS 451112
2013 01 16.38265 09 03 34.59 +15 31 33.4 19.3 V 703 – Catalina Sky Survey MPS 451112
2013 01 16.38809 09 03 34.38 +15 31 38.7 20.3 V 703 – Catalina Sky Survey MPS 451112
2013 01 16.39348 09 03 34.23 +15 31 40.7 19.6 V 703 – Catalina Sky Survey MPS 451112
2013 01 18.29243 09 02 22.45 +15 53 08.8 20.3 V 691 – Steward Observatory, Kitt Peak-Spacewatch MPS 451112
2013 01 18.30762 09 02 21.87 +15 53 19.6 19.8 V 691 – Steward Observatory, Kitt Peak-Spacewatch MPS 451112
2013 01 18.32282 09 02 21.18 +15 53 29.7 20.0 V 691 – Steward Observatory, Kitt Peak-Spacewatch MPS 451112
2013 01 18.33926 09 02 20.50 +15 53 41.1 19.9 V G96 – Mt. Lemmon Survey MPS 451112
2013 01 18.34572 09 02 20.25 +15 53 45.6 20.1 V G96 – Mt. Lemmon Survey MPS 451112
2013 01 18.35220 09 02 19.96 +15 53 50.0 20.0 V G96 – Mt. Lemmon Survey MPS 451112
2013 01 18.35877 09 02 19.71 +15 53 54.3 19.9 V G96 – Mt. Lemmon Survey MPS 451112
2013 02 01.32734 08 52 05.01 +18 41 26.0 19.3 V G96 – Mt. Lemmon Survey MPS 453915
2013 02 01.33440 08 52 04.69 +18 41 31.4 19.3 V G96 – Mt. Lemmon Survey MPS 453915
2013 02 01.34147 08 52 04.33 +18 41 36.2 19.2 V G96 – Mt. Lemmon Survey MPS 453915
2013 02 01.34859 08 52 03.97 +18 41 41.2 19.1 V G96 – Mt. Lemmon Survey MPS 453915
2013 02 10.50622 08 45 01.31 +20 31 27.4 19.6 R D29 – Purple Mountain Observatory, XuYi Station MPS 453915
2013 02 10.52310 08 45 00.50 +20 31 39.7 19.4 R D29 – Purple Mountain Observatory, XuYi Station MPS 453915
2013 02 10.53998 08 44 59.77 +20 31 51.6 19.2 R D29 – Purple Mountain Observatory, XuYi Station MPS 453915
2013 02 11.26012 08 44 27.67 +20 40 12.7 20.0 V 703 – Catalina Sky Survey MPS 453915
2013 02 11.26403 08 44 27.52 +20 40 15.2 19.6 V 703 – Catalina Sky Survey MPS 453915
2013 02 11.26793 08 44 27.31 +20 40 18.4 19.9 V 703 – Catalina Sky Survey MPS 453915
2013 02 11.27181 08 44 27.13 +20 40 20.0 20.4 V 703 – Catalina Sky Survey MPS 453915
2013 02 11.30495 08 44 25.65 +20 40 44.0 19.6 V 703 – Catalina Sky Survey MPS 453915
2013 02 11.31137 08 44 25.36 +20 40 48.0 19.4 V 703 – Catalina Sky Survey MPS 453915
2013 02 11.31773 08 44 25.08 +20 40 52.8 19.9 V 703 – Catalina Sky Survey MPS 453915
2013 02 11.32402 08 44 24.82 +20 40 56.9 19.5 V 703 – Catalina Sky Survey MPS 453915
2013 03 03.13444 08 33 37.98 +23 57 10.0 20.5 V G96 – Mt. Lemmon Survey MPS 457734
2013 03 03.14013 08 33 37.83 +23 57 13.3 20.3 V G96 – Mt. Lemmon Survey MPS 457734
2013 03 03.14369 08 33 37.80 +23 57 14.9 20.2 V G96 – Mt. Lemmon Survey MPS 457734
2013 03 03.14723 08 33 37.72 +23 57 16.5 20.1 V G96 – Mt. Lemmon Survey MPS 457734
2014 05 26.48932 17 41 06.870 -03 53 24.36 21.0 w F51 – Pan-STARRS 1, Haleakala MPS 526565
2014 05 26.51258 17 41 05.797 -03 53 24.76 21.0 w F51 – Pan-STARRS 1, Haleakala MPS 526565
2014 05 26.52419 17 41 05.251 -03 53 24.99 21.1 w F51 – Pan-STARRS 1, Haleakala MPS 526565
2014 05 30.42808 17 38 05.823 -03 55 37.33 21.0 w F51 – Pan-STARRS 1, Haleakala MPS 526565
2014 05 30.43964 17 38 05.257 -03 55 37.85 20.9 w F51 – Pan-STARRS 1, Haleakala MPS 526565
2014 05 30.45123 17 38 04.702 -03 55 38.57 21.0 w F51 – Pan-STARRS 1, Haleakala MPS 526565
2014 05 30.46291 17 38 04.119 -03 55 39.20 21.1 w F51 – Pan-STARRS 1, Haleakala MPS 526565
2014 06 18.30767 17 22 25.17 -04 36 36.5 20.3 V G96 – Mt. Lemmon Survey MPS 526565
2014 06 18.31325 17 22 24.92 -04 36 37.2 20.4 V G96 – Mt. Lemmon Survey MPS 526565
2014 06 18.31883 17 22 24.63 -04 36 38.4 20.4 V G96 – Mt. Lemmon Survey MPS 526565
2014 06 18.32441 17 22 24.36 -04 36 39.3 20.8 V G96 – Mt. Lemmon Survey MPS 526565
2014 07 02.34764 17 11 42.07 -05 37 12.5 21.0 V G96 – Mt. Lemmon Survey MPS 526565
2014 07 02.34888 17 11 42.03 -05 37 12.4 21.1 V G96 – Mt. Lemmon Survey MPS 526565
2014 07 02.35271 17 11 41.85 -05 37 13.6 20.9 V G96 – Mt. Lemmon Survey MPS 526565
2014 07 02.35396 17 11 41.81 -05 37 14.3 20.6 V G96 – Mt. Lemmon Survey MPS 526565
2014 07 02.35782 17 11 41.66 -05 37 15.4 20.9 V G96 – Mt. Lemmon Survey MPS 526565
2014 07 02.35906 17 11 41.61 -05 37 16.1 20.4 V G96 – Mt. Lemmon Survey MPS 526565
2014 07 02.36292 17 11 41.43 -05 37 17.3 21.2 V G96 – Mt. Lemmon Survey MPS 526565
2014 07 02.36417 17 11 41.42 -05 37 16.3 20.9 V G96 – Mt. Lemmon Survey MPS 526565
2015 08 10.42173 21 35 10.713 -18 48 00.54 21.9 w F51 – Pan-STARRS 1, Haleakala MPS 619828
2015 08 10.43273 21 35 10.199 -18 48 05.00 21.8 w F51 – Pan-STARRS 1, Haleakala MPS 619828
2015 08 10.44375 21 35 09.715 -18 48 09.27 21.8 w F51 – Pan-STARRS 1, Haleakala MPS 619828
2015 08 10.45478 21 35 09.223 -18 48 13.67 21.7 w F51 – Pan-STARRS 1, Haleakala MPS 619828
2016 09 08.52466 01 11 05.400 -12 45 16.09 22.2 w F51 – Pan-STARRS 1, Haleakala MPS 727793
2016 09 08.53599 01 11 05.067 -12 45 20.84 22.2 w F51 – Pan-STARRS 1, Haleakala MPS 727793
2016 09 08.55861 01 11 04.375 -12 45 31.19 22.3 w F51 – Pan-STARRS 1, Haleakala MPS 727793
2017 11 24.50434 05 30 57.557 +02 41 14.31 20.6 w F51 – Pan-STARRS 1, Haleakala MPS 843032
2017 11 24.51743 05 30 56.975 +02 41 13.65 20.6 w F51 – Pan-STARRS 1, Haleakala MPS 843032
2017 11 24.53053 05 30 56.377 +02 41 13.02 20.7 w F51 – Pan-STARRS 1, Haleakala MPS 843032
2017 11 24.54365 05 30 55.787 +02 41 12.51 20.7 w F51 – Pan-STARRS 1, Haleakala MPS 843032
2017 12 08.41423 05 19 34.544 +02 46 24.81 20.3 i F51 – Pan-STARRS 1, Haleakala MPS 845094
2017 12 08.42501 05 19 33.943 +02 46 25.72 19.9 i F51 – Pan-STARRS 1, Haleakala MPS 845094
2017 12 08.43578 05 19 33.351 +02 46 27.05 20.2 i F51 – Pan-STARRS 1, Haleakala MPS 845094
2017 12 08.44660 05 19 32.753 +02 46 28.01 20.3 i F51 – Pan-STARRS 1, Haleakala MPS 845094
2017 12 20.26845 05 08 53.79 +03 18 42.9 20.9 G G96 – Mt. Lemmon Survey MPS 849185
2017 12 20.27360 05 08 53.51 +03 18 43.5 20.7 G G96 – Mt. Lemmon Survey MPS 849185
2017 12 20.27876 05 08 53.22 +03 18 45.1 20.6 G G96 – Mt. Lemmon Survey MPS 849185
2017 12 20.28391 05 08 52.95 +03 18 46.3 20.7 G G96 – Mt. Lemmon Survey MPS 849185
2017 12 25.41440 05 04 26.109 +03 40 53.74 20.7 w F51 – Pan-STARRS 1, Haleakala MPS 851577
2017 12 25.42652 05 04 25.477 +03 40 57.14 20.9 w F51 – Pan-STARRS 1, Haleakala MPS 851577
2017 12 25.43868 05 04 24.836 +03 41 00.73 20.7 w F51 – Pan-STARRS 1, Haleakala MPS 851577
2017 12 25.45088 05 04 24.205 +03 41 04.28 20.8 w F51 – Pan-STARRS 1, Haleakala MPS 851577
2019 02 08.56759 14 49 05.310 +02 58 49.30 21.0 w F51 – Pan-STARRS 1, Haleakala MPS 974134
2019 02 08.57930 14 49 05.982 +02 58 52.36 20.9 w F51 – Pan-STARRS 1, Haleakala MPS 974134
2019 02 08.59102 14 49 06.646 +02 58 55.72 21.0 w F51 – Pan-STARRS 1, Haleakala MPS 974134
2019 02 08.60280 14 49 07.315 +02 58 58.99 21.1 w F51 – Pan-STARRS 1, Haleakala MPS 974134
2019 02 12.50468 14 52 45.20 +03 17 39.8 21.2 G G96 – Mt. Lemmon Survey MPS 974134
2019 02 12.50986 14 52 45.48 +03 17 41.7 21.4 G G96 – Mt. Lemmon Survey MPS 974134
2019 02 12.51506 14 52 45.76 +03 17 43.2 21.2 G G96 – Mt. Lemmon Survey MPS 974134
2019 02 12.52024 14 52 45.97 +03 17 45.0 21.7 G G96 – Mt. Lemmon Survey MPS 974134
2019 04 04.38855 15 04 59.21 +09 52 04.0 20.3 G G96 – Mt. Lemmon Survey MPS 994205
2019 04 04.39370 15 04 59.09 +09 52 06.5 20.4 G G96 – Mt. Lemmon Survey MPS 994205
2019 04 04.39885 15 04 58.94 +09 52 08.7 20.5 G G96 – Mt. Lemmon Survey MPS 994205
